SIRIUSSAT-2 (43596 NORAD) Tracking and Keplerian Element Data

This shows tracking and keplerian element data for the satellite.

Feedback or suggestion? Click here.




ElementValue
Catalog43596
NameSIRIUSSAT-2
Epoch Orbit5275
Epoch Day201.16796543
Epoch Year2019
RAAN185.7823
Inclination51.6361
Eccentricity0.0002999
Argument of Perigee228.29
Mean Anonmoly131.7837
Mean Motion15.61439634
Decay Rate7.49E-05
L11 43596U 98067PH 19201.16796543 .00007490 00000-0 91932-4 0 9999
L22 43596 51.6361 185.7823 0002999 228.2900 131.7837 15.61439634 52758

Live tracking and technical data element details for SIRIUSSAT-2 (NORAD 43596). SIRIUSSAT-2 can be tracked NOW for your location showing map with azimuth and elevation plus other details from your city location.

Track the satellite on the map from your city or location and see movement details for azimuth, elevation, latitude, longitude, range, height, and movement on the map or in text.







IsCatalogInMostPopularTable: catalog: 43596, numindb: 176
Update: records affected: 1



GetName: 43596 SIRIUSSAT-2

Hit Count: updated at: Sat, 20 Jul 2019 22:35:25 GMT